Wind_Speed
8 8 7 5 3 1 3 4 4 5 6 7 8 9 10 9 9 8 8 7 8 8 7 7 7 6 6 6 6 6 7 7 7 7 7 6 5 5 5 4 4 3 2 1 2 2 2 3 3
9 8 6 5 3 1 2 2 3 5 7 7 7 8 9 9 9 8 8 8 9 9 8 7 7 7 6 6 6 6 6 7 7 7 7 6 5 5 5 4 4 3 3 2 2 2 3 3 3
8 7 6 5 3 2 2 3 5 6 6 7 7 8 8 9 9 9 9 9 10 9 8 7 7 7 6 6 6 6 6 6 6 6 6 6 5 5 5 5 4 4 4 3 3 4 3 3 4
8 7 6 4 2 0 2 4 6 7 8 8 7 7 7 8 8 8 9 9 9 9 9 8 7 7 6 6 6 6 6 7 7 7 7 6 6 6 6 6 5 4 4 4 4 4 5 4 4
8 7 6 4 2 1 3 4 6 7 9 9 7 7 7 8 7 8 8 9 10 9 9 9 8 7 7 6 6 6 6 7 7 8 7 6 7 7 7 6 6 5 5 5 5 5 5 5 5
7 7 6 4 3 3 2 4 7 8 8 8 8 8 8 8 7 8 8 9 10 10 9 9 9 7 7 7 6 6 6 7 7 8 8 7 7 7 6 5 5 5 5 5 5 5 5 5 5
8 7 6 5 4 3 2 3 6 9 9 10 9 9 9 8 9 8 8 9 10 9 9 8 9 9 9 7 7 7 7 8 8 9 8 8 8 7 5 4 4 5 6 6 6 6 5 6 5
9 8 6 5 5 4 4 5 7 8 9 8 9 9 9 9 9 8 8 9 9 9 9 9 8 9 9 8 8 8 8 8 9 9 9 9 9 8 6 5 4 5 6 6 6 7 6 7 7
10 8 6 6 6 5 5 7 8 10 10 9 10 9 8 10 9 8 9 9 9 9 9 9 9 9 9 9 8 9 9 9 9 10 9 9 9 8 8 6 6 6 6 7 7 7 7 7 8
10 8 7 7 7 7 7 9 9 10 10 11 10 9 8 9 9 8 8 9 9 9 9 9 9 9 9 9 9 10 10 10 10 10 9 9 9 9 8 7 7 7 7 7 7 7 8 8 9
11 9 9 8 8 8 8 10 10 10 11 11 10 8 9 10 9 8 8 9 9 9 9 10 10 9 9 9 10 11 11 10 10 10 10 9 9 9 8 7 7 7 8 8 8 8 8 9 9
12 11 11 10 10 10 9 10 11 10 11 11 9 8 8 9 9 8 7 8 9 9 9 10 10 10 10 10 10 11 11 10 10 10 10 9 8 8 8 8 7 7 8 7 8 8 8 9 10
14 13 13 12 12 11 11 11 12 11 12 13 11 9 8 9 10 9 8 8 9 10 10 10 10 11 10 10 11 11 11 11 10 10 10 10 9 9 9 9 8 8 8 7 7 8 8 9 10
15 15 14 13 12 11 11 12 12 11 12 13 12 10 9 10 10 9 9 9 9 10 10 10 10 10 10 10 11 12 12 11 11 11 10 10 10 9 8 8 7 7 7 7 7 8 8 9 9
17 15 15 14 12 12 12 12 12 13 13 12 12 12 12 11 10 9 9 10 11 11 11 12 12 11 11 11 11 12 12 12 12 11 11 10 9 8 8 7 7 7 7 7 7 7 7 8 8
17 16 16 15 14 13 14 12 12 14 13 13 12 13 14 12 10 10 10 11 12 12 12 12 13 12 12 12 12 13 14 13 12 12 11 10 9 8 8 8 7 7 7 7 7 7 7 7 7
18 17 16 15 14 14 14 13 12 14 14 13 14 14 14 13 11 10 11 12 12 13 13 13 13 13 13 13 13 13 14 13 12 12 11 10 9 8 8 8 8 8 8 8 7 7 7 7 7
18 18 17 16 15 15 15 15 15 15 15 15 15 15 14 13 11 11 12 12 12 13 14 13 12 13 13 13 14 14 14 14 12 11 10 10 9 8 8 8 8 8 8 8 7 7 7 8 8
20 20 19 18 17 17 16 17 17 16 16 17 16 16 14 13 12 12 12 12 13 13 14 13 13 13 14 14 14 14 13 13 12 11 10 9 9 8 8 8 8 8 8 8 8 7 7 7 8
22 21 19 19 18 19 19 20 18 16 16 16 17 16 14 15 15 14 13 14 15 14 13 13 14 14 14 14 14 14 14 13 12 10 9 8 8 7 7 7 7 7 8 8 7 8 9 9 9
23 21 21 20 20 21 21 22 20 18 17 17 17 18 16 15 15 15 15 15 15 15 14 14 14 14 15 15 14 14 14 13 12 11 9 7 7 7 7 7 7 8 8 8 8 8 9 9 9
22 20 21 21 21 21 21 22 21 20 19 18 19 18 16 15 15 15 15 15 15 15 15 15 15 14 14 15 14 14 14 13 12 11 9 7 7 7 8 8 8 7 8 7 8 8 8 8 8
23 22 23 23 24 23 23 24 22 21 20 19 19 18 16 15 15 15 16 16 16 17 16 16 15 15 15 15 14 14 14 13 12 10 8 8 7 8 8 8 8 8 8 8 8 7 7 7 8
24 25 25 25 25 25 22 23 22 20 20 19 20 19 17 17 16 15 16 16 17 17 16 16 15 15 15 14 14 14 14 13 12 10 9 8 8 8 8 8 8 8 8 8 8 8 8 8 8
25 25 26 26 27 26 23 24 21 19 19 19 19 19 18 18 17 17 18 16 17 17 17 17 16 16 16 15 15 14 14 13 12 10 10 9 9 9 9 9 8 8 8 8 8 8 8 9 9
24 25 27 26 26 25 25 25 22 20 19 19 18 18 18 18 18 18 18 17 17 17 18 17 16 16 16 16 16 15 14 13 12 10 10 10 10 10 10 9 9 8 8 8 8 9 8 9 9
24 25 25 25 25 25 25 23 21 18 17 17 18 19 18 18 18 18 19 18 17 18 18 17 17 17 16 16 16 16 14 13 12 11 11 11 11 11 11 9 9 9 9 9 9 9 9 9 9
24 24 25 27 27 27 26 23 21 20 19 17 18 19 18 17 17 17 18 18 18 18 18 17 17 17 16 16 17 16 15 13 12 12 12 11 11 12 12 10 10 9 9 10 9 9 9 10 10
24 26 26 27 28 27 26 24 21 20 21 19 18 18 17 16 16 17 18 17 18 18 18 18 18 17 17 16 17 16 16 15 14 13 13 12 12 11 11 11 9 9 10 10 10 10 11 11 10
26 27 27 29 28 28 28 25 22 21 22 21 20 18 17 17 18 19 18 17 17 18 18 18 18 17 17 17 17 17 17 15 14 13 13 13 12 11 11 11 10 11 11 11 11 11 12 12 12
Wind_Direction
158 159 160 158 150 117 64 57 32 35 23 25 14 4 4 9 5 358 358 1 6 4 1 358 356 352 347 344 342 339 337 337 339 341 339 334 326 314 302 301 306 311 302 261 221 203 210 203 199
170 170 172 170 171 88 40 25 11 20 17 14 13 0 360 1 359 356 359 3 8 3 358 354 352 348 345 339 335 331 330 331 334 336 336 333 325 312 301 293 288 293 293 274 235 227 226 222 223
178 181 189 192 178 105 55 7 3 12 8 360 1 354 354 352 356 356 358 3 6 2 357 356 349 343 342 340 334 333 333 332 332 332 329 327 321 312 295 286 280 276 274 264 249 239 243 240 235
187 187 195 202 203 53 2 15 355 354 352 351 351 346 351 351 355 357 360 3 2 360 357 348 343 343 344 342 336 332 333 333 331 329 325 320 313 307 293 282 276 270 265 261 249 244 249 243 239
199 201 205 211 235 338 342 355 342 338 340 341 348 345 344 349 357 2 2 2 0 358 356 352 343 345 346 345 340 334 333 333 330 328 324 318 313 306 296 281 271 261 259 261 250 251 255 249 249
205 207 203 214 255 291 327 341 326 320 328 334 336 339 338 342 358 1 359 358 358 358 353 351 349 349 349 348 340 337 336 336 333 331 326 318 315 315 311 287 266 262 262 261 254 255 254 249 247
219 213 213 238 255 283 300 318 316 322 327 321 324 337 341 341 352 358 354 354 357 359 356 354 350 350 350 348 343 340 335 331 329 330 324 320 318 315 312 290 268 269 267 268 263 258 256 250 249
220 214 215 231 235 254 282 295 302 313 321 318 328 332 338 339 347 354 350 350 352 353 354 352 352 353 354 351 346 340 337 331 329 331 324 318 318 313 305 292 276 273 270 267 268 262 257 249 244
222 216 220 226 235 246 268 283 291 301 306 312 323 322 323 329 341 346 345 343 348 350 353 351 350 354 354 352 350 345 335 329 330 332 327 320 315 311 303 288 286 276 273 270 267 262 253 250 245
221 213 214 225 239 254 260 277 282 290 302 309 314 314 311 324 335 343 341 344 347 349 348 345 347 348 346 347 345 341 339 333 331 332 329 323 314 308 303 290 288 279 272 269 264 259 253 251 248
223 219 218 225 240 250 260 267 273 280 291 298 307 312 310 317 324 334 336 338 341 344 344 346 344 343 341 340 338 337 338 335 332 331 328 323 315 306 305 299 292 281 274 269 265 262 256 251 248
226 220 223 228 237 247 258 265 268 279 284 293 299 304 304 307 315 323 333 334 336 344 345 345 342 339 339 338 335 334 335 333 331 330 328 322 314 309 302 295 291 284 277 271 267 263 260 252 248
225 222 227 232 237 246 255 263 265 275 282 289 294 291 295 300 306 309 321 330 335 340 340 342 339 338 338 339 336 333 332 331 329 328 330 323 310 307 305 297 287 283 275 269 267 264 260 257 251
227 228 231 236 242 246 253 263 268 274 283 288 290 291 290 295 302 310 313 320 331 337 334 333 336 340 340 337 336 335 332 329 328 328 327 322 312 303 301 298 291 282 275 271 268 267 262 260 254
232 231 233 238 243 247 253 258 270 274 279 285 288 288 290 292 299 306 312 316 324 331 332 330 333 336 336 335 332 332 332 330 328 327 326 322 316 312 304 296 291 281 271 271 270 267 265 262 257
236 236 236 240 246 249 257 262 268 270 275 281 282 286 286 290 304 312 312 313 318 322 325 325 325 327 328 330 330 330 329 330 326 324 322 322 317 311 306 297 293 282 272 267 269 269 262 257 253
239 239 240 241 246 249 257 263 262 264 271 277 282 285 288 289 303 306 306 312 314 315 319 320 320 321 322 324 326 329 327 329 326 324 322 322 318 310 307 300 296 291 279 271 270 270 261 253 251
240 241 242 242 243 246 254 262 263 263 267 274 278 284 285 286 297 297 299 308 306 306 311 314 315 316 319 321 323 325 329 327 323 323 322 321 315 308 304 300 297 291 284 274 269 271 261 254 253
239 240 240 242 243 246 251 256 259 261 264 271 275 280 280 285 292 291 293 303 302 301 305 308 310 311 315 318 319 321 325 327 323 320 320 318 313 306 303 298 291 289 283 271 264 267 263 259 255
240 241 241 242 243 248 253 255 256 260 265 271 272 273 274 282 289 288 289 294 296 295 298 302 305 307 311 313 314 317 320 323 322 322 318 314 307 303 302 301 300 291 285 274 272 271 265 260 258
239 241 243 244 243 248 254 254 253 258 264 269 270 275 279 287 290 288 287 289 289 290 292 295 298 301 305 308 308 312 316 317 317 319 315 314 306 303 301 303 301 294 288 280 273 269 267 266 259
238 239 242 243 244 245 249 253 254 260 261 263 265 270 277 282 287 288 286 285 287 288 290 294 297 298 300 301 303 308 311 312 315 314 312 311 305 300 301 302 298 289 289 286 274 268 267 264 262
237 238 241 242 243 245 247 254 254 258 260 263 265 267 273 276 279 282 282 286 286 287 288 295 296 299 298 297 300 303 304 305 308 306 303 304 306 302 299 302 298 292 286 282 280 273 269 266 267
236 239 241 243 244 245 247 252 253 254 258 260 260 261 265 269 271 275 279 284 285 286 288 292 294 296 297 295 296 300 300 300 301 297 296 295 299 302 301 300 301 299 290 281 276 274 268 266 269
235 238 239 241 243 245 245 250 254 251 250 252 255 258 261 266 271 273 276 280 284 286 288 288 289 291 293 295 294 297 297 296 297 289 294 295 295 296 300 302 301 296 289 285 277 275 268 268 269
235 238 241 245 247 246 244 249 256 255 253 254 253 254 257 262 266 272 277 281 283 287 290 288 288 290 291 292 293 293 294 294 291 286 291 292 293 292 293 297 296 294 291 288 284 276 274 272 273
234 236 241 244 246 246 244 247 251 251 252 253 251 256 258 261 265 269 274 279 283 284 284 285 288 289 290 291 292 291 289 290 287 286 287 288 289 289 288 285 288 289 288 287 285 283 279 275 274
237 239 241 242 242 243 242 243 247 249 251 254 254 256 258 262 266 269 271 277 281 281 281 282 285 288 290 291 291 290 289 287 283 282 283 282 285 285 282 278 283 286 287 284 282 284 284 279 276
235 237 238 239 241 243 243 242 243 249 251 253 254 254 259 262 267 273 272 277 279 278 277 280 284 286 288 289 290 288 286 283 281 275 276 278 280 281 280 277 283 285 286 283 281 280 280 279 278
234 235 237 238 240 242 244 242 240 243 248 251 252 254 258 263 270 272 272 276 276 276 277 279 282 283 284 287 288 284 282 277 276 274 271 274 277 277 276 276 279 280 283 281 278 278 278 278 277
Height
5909 5910 5910 5911 5912 5910 5909 5909 5909 5908 5909 5909 5909 5908 5907 5907 5906 5907 5904 5901 5899 5898 5897 5896 5896 5895 5894 5894 5893 5892 5891 5890 5889 5888 5887 5886 5885 5884 5883 5883 5882 5882 5882 5881 5881 5880 5880 5880 5880
5909 5910 5911 5911 5910 5910 5910 5909 5909 5908 5908 5908 5908 5908 5908 5907 5905 5904 5902 5901 5899 5897 5897 5896 5895 5895 5894 5893 5892 5892 5891 5890 5889 5888 5887 5885 5884 5883 5883 5882 5882 5882 5881 5881 5881 5881 5880 5880 5880
5909 5909 5911 5910 5909 5909 5909 5909 5909 5908 5908 5908 5908 5908 5908 5906 5905 5903 5902 5900 5899 5898 5896 5896 5895 5894 5893 5893 5892 5891 5890 5889 5888 5887 5886 5885 5884 5883 5882 5881 5881 5881 5881 5881 5881 5881 5880 5880 5880
5908 5909 5910 5910 5909 5909 5909 5908 5908 5908 5908 5908 5908 5908 5907 5906 5904 5903 5901 5900 5899 5898 5897 5896 5895 5894 5893 5892 5891 5890 5889 5888 5887 5886 5885 5884 5883 5882 5881 5880 5880 5880 5880 5880 5880 5881 5880 5880 5880
5908 5909 5909 5909 5908 5908 5908 5908 5908 5907 5907 5907 5907 5907 5906 5905 5904 5902 5901 5900 5899 5898 5897 5895 5895 5894 5892 5891 5891 5890 5889 5888 5887 5885 5884 5883 5882 5880 5879 5877 5878 5879 5879 5879 5880 5880 5880 5880 5880
5908 5908 5909 5908 5908 5907 5907 5906 5906 5906 5906 5906 5906 5906 5906 5905 5903 5902 5901 5900 5899 5898 5896 5895 5894 5893 5892 5891 5890 5889 5888 5887 5886 5884 5883 5882 5880 5879 5876 5874 5876 5877 5878 5878 5879 5879 5879 5879 5879
5907 5907 5908 5907 5907 5906 5906 5906 5906 5905 5905 5906 5906 5905 5904 5904 5903 5902 5901 5900 5899 5898 5896 5895 5893 5892 5891 5890 5889 5888 5887 5886 5885 5883 5882 5881 5879 5878 5875 5874 5875 5877 5877 5877 5878 5878 5878 5878 5878
5904 5906 5906 5906 5906 5905 5906 5905 5905 5905 5905 5904 5904 5905 5904 5904 5903 5902 5901 5900 5899 5897 5896 5894 5893 5892 5890 5889 5888 5887 5886 5885 5884 5882 5881 5880 5878 5877 5876 5875 5875 5876 5876 5876 5877 5877 5877 5876 5876
5903 5905 5905 5905 5904 5905 5904 5904 5904 5904 5904 5903 5903 5904 5903 5903 5902 5902 5900 5899 5898 5897 5895 5894 5892 5891 5890 5889 5888 5886 5885 5884 5882 5881 5880 5878 5877 5876 5875 5875 5874 5875 5875 5875 5875 5875 5875 5875 5875
5901 5903 5904 5904 5903 5903 5903 5903 5903 5903 5902 5902 5903 5902 5902 5901 5901 5901 5900 5898 5897 5896 5894 5893 5891 5890 5889 5888 5887 5886 5884 5882 5881 5880 5878 5877 5876 5875 5874 5874 5873 5873 5873 5873 5873 5873 5873 5873 5873
5899 5901 5901 5901 5901 5902 5901 5901 5901 5901 5901 5901 5901 5901 5900 5900 5899 5899 5899 5897 5896 5895 5893 5892 5891 5890 5888 5887 5886 5885 5883 5881 5880 5878 5877 5876 5874 5873 5873 5872 5872 5872 5871 5871 5871 5871 5871 5872 5872
5897 5898 5898 5899 5899 5899 5899 5900 5900 5900 5900 5900 5900 5900 5899 5899 5898 5898 5897 5896 5895 5894 5893 5891 5890 5889 5887 5886 5885 5883 5882 5880 5878 5877 5875 5874 5873 5872 5871 5871 5870 5870 5869 5869 5869 5869 5869 5870 5870
5894 5895 5896 5896 5896 5897 5897 5897 5898 5898 5898 5898 5898 5898 5898 5897 5896 5896 5896 5895 5894 5893 5892 5891 5889 5888 5886 5885 5883 5882 5880 5879 5877 5875 5873 5872 5871 5870 5869 5869 5868 5868 5867 5867 5867 5867 5867 5867 5868
5891 5892 5893 5894 5894 5895 5895 5895 5896 5896 5896 5896 5895 5895 5895 5895 5895 5894 5894 5893 5892 5892 5891 5890 5888 5886 5885 5883 5882 5880 5879 5877 5875 5874 5872 5870 5869 5868 5867 5867 5867 5866 5866 5865 5865 5865 5865 5865 5865
5888 5890 5891 5892 5892 5893 5893 5894 5893 5893 5894 5894 5894 5894 5894 5893 5893 5893 5892 5892 5891 5890 5889 5888 5887 5885 5884 5882 5881 5879 5877 5875 5873 5872 5870 5869 5867 5866 5865 5865 5864 5864 5864 5863 5863 5863 5863 5863 5863
5884 5886 5888 5889 5889 5890 5891 5891 5892 5891 5891 5891 5892 5891 5891 5891 5891 5891 5890 5890 5889 5888 5887 5886 5884 5884 5882 5880 5879 5877 5875 5873 5871 5869 5868 5867 5865 5864 5863 5862 5862 5862 5861 5861 5861 5861 5861 5861 5861
5881 5883 5885 5886 5886 5886 5887 5888 5889 5888 5888 5888 5888 5888 5889 5888 5889 5888 5888 5887 5887 5886 5885 5884 5882 5881 5880 5878 5877 5875 5873 5871 5869 5867 5866 5864 5863 5862 5861 5860 5860 5859 5859 5859 5859 5859 5859 5859 5859
5878 5879 5880 5882 5882 5882 5882 5883 5885 5885 5885 5885 5886 5885 5885 5885 5886 5886 5886 5885 5884 5883 5883 5881 5880 5879 5877 5876 5874 5872 5870 5868 5866 5865 5863 5862 5861 5860 5859 5858 5858 5857 5857 5856 5856 5856 5856 5857 5857
5872 5874 5876 5878 5878 5878 5878 5879 5880 5881 5881 5882 5882 5882 5882 5883 5883 5883 5883 5882 5881 5881 5880 5879 5878 5877 5875 5873 5871 5870 5868 5866 5864 5862 5861 5859 5858 5857 5857 5856 5855 5855 5854 5854 5853 5854 5854 5854 5854
5867 5869 5871 5873 5874 5874 5875 5875 5876 5877 5877 5878 5878 5879 5879 5879 5879 5880 5880 5879 5879 5878 5878 5876 5875 5874 5872 5871 5869 5867 5865 5863 5862 5860 5859 5857 5856 5855 5854 5854 5853 5853 5852 5851 5851 5851 5851 5852 5852
5862 5865 5867 5868 5869 5869 5870 5871 5872 5873 5873 5874 5875 5875 5876 5876 5876 5876 5876 5876 5876 5876 5875 5873 5872 5870 5869 5868 5866 5865 5863 5861 5860 5858 5856 5855 5854 5853 5853 5852 5851 5850 5849 5849 5849 5849 5849 5849 5849
5857 5860 5862 5863 5863 5864 5866 5866 5868 5868 5869 5870 5870 5871 5871 5872 5873 5873 5873 5873 5873 5873 5872 5870 5869 5867 5865 5864 5863 5862 5861 5859 5857 5856 5854 5853 5852 5851 5850 5850 5849 5848 5847 5846 5846 5846 5846 5846 5846
5852 5854 5856 5857 5858 5859 5860 5861 5863 5864 5865 5866 5866 5867 5868 5869 5870 5870 5870 5870 5870 5869 5868 5867 5865 5864 5863 5861 5860 5859 5858 5857 5855 5853 5852 5851 5850 5849 5848 5847 5846 5846 5845 5844 5844 5844 5844 5844 5844
5846 5849 5850 5851 5852 5854 5856 5856 5858 5860 5861 5861 5862 5862 5864 5865 5865 5866 5866 5866 5866 5865 5864 5863 5862 5861 5860 5858 5857 5856 5855 5853 5852 5851 5850 5849 5848 5847 5846 5845 5844 5843 5843 5842 5842 5842 5841 5841 5841
5840 5842 5844 5845 5846 5848 5851 5850 5853 5854 5855 5856 5857 5858 5859 5860 5860 5861 5861 5861 5861 5861 5860 5859 5858 5857 5856 5855 5854 5853 5851 5850 5849 5848 5847 5846 5845 5844 5843 5842 5841 5841 5840 5840 5839 5839 5839 5838 5838
5834 5836 5838 5840 5841 5843 5845 5844 5848 5849 5849 5850 5851 5852 5853 5855 5856 5856 5856 5856 5857 5856 5855 5855 5854 5853 5852 5851 5850 5849 5848 5847 5845 5845 5844 5843 5842 5842 5841 5840 5839 5838 5837 5837 5837 5836 5836 5835 5835
5828 5830 5833 5834 5835 5837 5838 5840 5842 5843 5844 5845 5847 5847 5849 5850 5850 5851 5852 5852 5852 5852 5851 5850 5849 5848 5847 5846 5845 5844 5844 5843 5842 5841 5841 5840 5840 5839 5838 5837 5836 5835 5835 5834 5834 5833 5833 5832 5832
5823 5825 5826 5827 5829 5830 5832 5834 5837 5839 5840 5841 5842 5843 5844 5845 5845 5846 5847 5847 5847 5847 5846 5845 5844 5843 5843 5842 5841 5840 5839 5838 5838 5838 5837 5837 5836 5835 5834 5833 5833 5832 5832 5831 5831 5830 5830 5829 5828
5816 5818 5819 5821 5823 5825 5826 5831 5833 5834 5834 5836 5837 5838 5839 5840 5841 5841 5841 5841 5842 5842 5841 5840 5840 5839 5838 5838 5837 5836 5835 5834 5834 5834 5834 5833 5832 5832 5831 5830 5829 5829 5828 5828 5827 5827 5826 5826 5825
5809 5811 5814 5816 5817 5819 5821 5826 5827 5828 5829 5830 5832 5833 5834 5835 5836 5836 5837 5836 5836 5836 5835 5835 5835 5834 5834 5833 5832 5831 5830 5829 5829 5829 5829 5829 5828 5828 5827 5827 5826 5825 5825 5824 5824 5823 5822 5822 5821